• In Czech Republic
  • List of Countries
  • For 7 days
  • Water Temperature
  • Satellite Maps
  • Weather Map
  • Weather Widgets
  • user-avatar
    Login

    Hourly Weather Naklo

    Today, 20 April, Friday

    Time Temperature Precipitation Wind Pressure Humidity
    00:00 +10°C° 0 mm 4 mps 752 mmHg 72%
    01:00 +10°C° 0 mm 4 mps 752 mmHg 74%
    02:00 +9°C° 0 mm 2 mps 752 mmHg 84%
    03:00 +8°C° 0 mm 2 mps 752 mmHg 86%
    04:00 +8°C° 0 mm 3 mps 752 mmHg 88%
    05:00 +7°C° 0 mm 3 mps 752 mmHg 90%
    06:00 +8°C° 0 mm 3 mps 752 mmHg 85%
    07:00 +9°C° 0 mm 3 mps 753 mmHg 80%
    08:00 +10°C° 0 mm 3 mps 753 mmHg 75%
    09:00 +12°C° 0 mm 3 mps 753 mmHg 68%
    10:00 +13°C° 0 mm 3 mps 753 mmHg 61%
    11:00 +14°C° 0 mm 3 mps 753 mmHg 54%
    12:00 +16°C° 0 mm 3 mps 753 mmHg 50%
    13:00 +17°C° 0 mm 3 mps 752 mmHg 47%
    14:00 +18°C° 0 mm 3 mps 752 mmHg 44%
    15:00 +18°C° 0 mm 3 mps 752 mmHg 44%
    16:00 +18°C° 0 mm 3 mps 751 mmHg 45%
    17:00 +18°C° 0 mm 3 mps 751 mmHg 45%
    18:00 +16°C° 0 mm 2 mps 751 mmHg 51%
    19:00 +14°C° 0 mm 1 mps 751 mmHg 57%
    20:00 +12°C° 0 mm 0 mps 751 mmHg 63%
    21:00 +12°C° 0 mm 1 mps 751 mmHg 64%
    22:00 +12°C° 0 mm 1 mps 751 mmHg 65%
    23:00 +11°C° 0 mm 1 mps 751 mmHg 66%

    Tomorrow, 21 April, Saturday

    Time Temperature Precipitation Wind Pressure Humidity
    00:00 +11°C° 0 mm 1 mps 750 mmHg 68%
    01:00 +9°C° 0 mm 2 mps 750 mmHg 69%
    02:00 +9°C° 0 mm 2 mps 750 mmHg 70%
    03:00 +9°C° 0 mm 2 mps 749 mmHg 70%
    04:00 +9°C° 0 mm 2 mps 749 mmHg 70%
    05:00 +8°C° 0 mm 2 mps 748 mmHg 69%
    06:00 +10°C° 0 mm 3 mps 748 mmHg 64%
    07:00 +12°C° 0 mm 4 mps 748 mmHg 60%
    08:00 +14°C° 0 mm 4 mps 748 mmHg 55%
    09:00 +16°C° 0 mm 5 mps 747 mmHg 51%
    10:00 +19°C° 0 mm 5 mps 747 mmHg 47%
    11:00 +21°C° 0 mm 6 mps 746 mmHg 43%
    12:00 +22°C° 0 mm 6 mps 746 mmHg 43%
    13:00 +23°C° 0 mm 6 mps 746 mmHg 44%
    14:00 +24°C° 0 mm 7 mps 746 mmHg 44%
    15:00 +24°C° 0.1 mm 6 mps 745 mmHg 49%
    16:00 +23°C° 0.1 mm 5 mps 745 mmHg 53%
    17:00 +22°C° 0.1 mm 5 mps 745 mmHg 57%
    18:00 +21°C° 0.3 mm 4 mps 745 mmHg 63%
    19:00 +19°C° 0.3 mm 4 mps 745 mmHg 68%
    20:00 +17°C° 0.3 mm 3 mps 745 mmHg 73%
    21:00 +16°C° 0 mm 3 mps 745 mmHg 75%
    22:00 +15°C° 0 mm 2 mps 745 mmHg 76%
    23:00 +15°C° 0 mm 2 mps 745 mmHg 78%

    Day after tomorrow, 22 April, Sunday

    Time Temperature Precipitation Wind Pressure Humidity
    00:00 +14°C° 0 mm 2 mps 746 mmHg 79%
    01:00 +13°C° 0 mm 2 mps 746 mmHg 80%
    02:00 +13°C° 0 mm 2 mps 746 mmHg 81%
    03:00 +12°C° 0 mm 2 mps 746 mmHg 82%
    04:00 +10°C° 0 mm 2 mps 746 mmHg 83%
    05:00 +9°C° 0 mm 2 mps 746 mmHg 84%
    06:00 +10°C° 0 mm 2 mps 746 mmHg 78%
    07:00 +12°C° 0 mm 2 mps 746 mmHg 73%
    08:00 +13°C° 0 mm 2 mps 746 mmHg 67%
    09:00 +14°C° 0 mm 3 mps 746 mmHg 60%
    10:00 +16°C° 0 mm 3 mps 746 mmHg 54%
    11:00 +17°C° 0 mm 4 mps 746 mmHg 47%
    12:00 +18°C° 0 mm 4 mps 746 mmHg 45%
    13:00 +18°C° 0 mm 4 mps 745 mmHg 43%
    14:00 +19°C° 0 mm 4 mps 745 mmHg 41%
    15:00 +19°C° 0 mm 4 mps 745 mmHg 42%
    16:00 +19°C° 0 mm 4 mps 745 mmHg 43%
    17:00 +19°C° 0 mm 3 mps 744 mmHg 44%
    18:00 +17°C° 0 mm 3 mps 744 mmHg 50%
    19:00 +15°C° 0 mm 2 mps 744 mmHg 56%
    20:00 +13°C° 0 mm 1 mps 745 mmHg 61%
    21:00 +13°C° 0 mm 1 mps 745 mmHg 63%
    22:00 +12°C° 0 mm 1 mps 745 mmHg 65%
    23:00 +10°C° 0 mm 0 mps 745 mmHg 66%

    23 April, Monday

    Time Temperature Precipitation Wind Pressure Humidity
    00:00 +11°C° 0 mm 1 mps 745 mmHg 67%
    01:00 +11°C° 0 mm 1 mps 745 mmHg 68%
    02:00 +10°C° 0 mm 1 mps 744 mmHg 68%
    03:00 +10°C° 0 mm 1 mps 744 mmHg 70%
    04:00 +10°C° 0 mm 1 mps 744 mmHg 71%
    05:00 +9°C° 0 mm 1 mps 744 mmHg 72%
    06:00 +11°C° 0 mm 1 mps 744 mmHg 68%
    07:00 +13°C° 0 mm 1 mps 744 mmHg 63%
    08:00 +13°C° 0 mm 0 mps 744 mmHg 59%
    09:00 +16°C° 0 mm 1 mps 744 mmHg 54%
    10:00 +19°C° 0 mm 1 mps 744 mmHg 50%
    11:00 +21°C° 0 mm 1 mps 743 mmHg 45%
    12:00 +21°C° 0 mm 2 mps 743 mmHg 44%
    13:00 +23°C° 0 mm 2 mps 742 mmHg 43%
    14:00 +24°C° 0 mm 2 mps 742 mmHg 42%
    15:00 +24°C° 0.1 mm 2 mps 741 mmHg 46%
    16:00 +24°C° 0.1 mm 3 mps 741 mmHg 51%
    17:00 +22°C° 0.1 mm 3 mps 741 mmHg 56%
    18:00 +21°C° 1.4 mm 3 mps 740 mmHg 66%
    19:00 +19°C° 1.4 mm 3 mps 740 mmHg 76%
    20:00 +17°C° 1.4 mm 3 mps 740 mmHg 86%
    21:00 +17°C° 0.7 mm 3 mps 740 mmHg 88%
    22:00 +16°C° 0.7 mm 3 mps 740 mmHg 90%
    23:00 +16°C° 0.7 mm 3 mps 740 mmHg 92%

    24 April, Tuesday

    Time Temperature Precipitation Wind Pressure Humidity
    00:00 +14°C° 0.1 mm 3 mps 740 mmHg 93%
    01:00 +14°C° 0.1 mm 4 mps 740 mmHg 94%
    02:00 +14°C° 0.1 mm 4 mps 740 mmHg 95%
    03:00 +14°C° 0.2 mm 4 mps 741 mmHg 94%
    04:00 +13°C° 0.2 mm 5 mps 741 mmHg 93%
    05:00 +13°C° 0.2 mm 5 mps 741 mmHg 93%
    06:00 +13°C° 0 mm 4 mps 742 mmHg 89%
    07:00 +13°C° 0 mm 4 mps 742 mmHg 84%
    08:00 +12°C° 0 mm 4 mps 743 mmHg 80%
    09:00 +13°C° 0 mm 4 mps 743 mmHg 74%
    10:00 +14°C° 0 mm 4 mps 743 mmHg 67%
    11:00 +15°C° 0 mm 4 mps 744 mmHg 61%
    12:00 +17°C° 0.1 mm 4 mps 744 mmHg 60%
    13:00 +17°C° 0.1 mm 4 mps 743 mmHg 60%
    14:00 +17°C° 0.1 mm 5 mps 743 mmHg 59%
    15:00 +17°C° 0.1 mm 5 mps 743 mmHg 58%
    16:00 +17°C° 0.1 mm 5 mps 743 mmHg 56%
    17:00 +17°C° 0.1 mm 5 mps 743 mmHg 55%
    18:00 +15°C° 0 mm 4 mps 743 mmHg 61%
    19:00 +14°C° 0 mm 3 mps 743 mmHg 67%
    20:00 +13°C° 0 mm 2 mps 744 mmHg 73%
    21:00 +13°C° 0 mm 2 mps 744 mmHg 74%
    22:00 +13°C° 0 mm 2 mps 744 mmHg 75%
    23:00 +12°C° 0 mm 2 mps 744 mmHg 77%

    25 April, Wednesday

    Time Temperature Precipitation Wind Pressure Humidity
    00:00 +12°C° 0 mm 2 mps 744 mmHg 78%
    01:00 +11°C° 0 mm 3 mps 744 mmHg 79%
    02:00 +11°C° 0 mm 3 mps 744 mmHg 80%
    03:00 +11°C° 0 mm 3 mps 744 mmHg 80%
    04:00 +11°C° 0 mm 3 mps 744 mmHg 80%
    05:00 +11°C° 0 mm 3 mps 744 mmHg 80%
    06:00 +12°C° 0 mm 4 mps 744 mmHg 75%
    07:00 +14°C° 0 mm 4 mps 743 mmHg 71%
    08:00 +15°C° 0 mm 5 mps 743 mmHg 66%
    09:00 +17°C° 0 mm 6 mps 743 mmHg 62%
    10:00 +20°C° 0 mm 7 mps 743 mmHg 57%
    11:00 +22°C° 0 mm 7 mps 742 mmHg 53%
    12:00 +22°C° 0 mm 8 mps 742 mmHg 51%
    13:00 +23°C° 0 mm 8 mps 741 mmHg 50%
    14:00 +24°C° 0 mm 8 mps 741 mmHg 49%
    15:00 +24°C° 0 mm 7 mps 740 mmHg 51%
    16:00 +23°C° 0 mm 6 mps 740 mmHg 53%
    17:00 +23°C° 0 mm 6 mps 740 mmHg 55%
    18:00 +22°C° 0.2 mm 5 mps 740 mmHg 59%
    19:00 +20°C° 0.2 mm 5 mps 739 mmHg 64%
    20:00 +19°C° 0.2 mm 5 mps 739 mmHg 69%
    21:00 +17°C° 0.5 mm 4 mps 740 mmHg 77%
    22:00 +16°C° 0.5 mm 3 mps 741 mmHg 84%
    23:00 +14°C° 0.5 mm 3 mps 741 mmHg 92%
    Show more